Time,TemperatureF,DewpointF,PressureIn,WindDirection,WindDirectionDegrees,WindSpeedMPH,WindSpeedGustMPH,Humidity,HourlyPrecipIn,Conditions,Clouds,dailyrainin,SoftwareType,DateUTC
2013-03-04 00:06:00,76.5,76.2,30.05,North,0,0.0,0.0,99,0.05,,,0.00,pywws,2013-03-03 14:06:00,
2013-03-04 00:16:00,76.6,76.3,30.04,North,0,0.0,0.0,99,0.02,,,0.00,pywws,2013-03-03 14:16:00,
2013-03-04 00:26:00,76.6,76.3,30.03,North,0,0.0,0.0,99,0.01,,,0.00,pywws,2013-03-03 14:26:00,
2013-03-04 00:36:00,76.6,76.3,30.02,North,0,0.0,0.0,99,0.00,,,0.00,pywws,2013-03-03 14:36:00,
2013-03-04 00:46:00,76.6,76.3,30.01,North,0,1.6,2.2,99,0.00,,,0.00,pywws,2013-03-03 14:46:00,
2013-03-04 00:56:00,76.6,76.3,30.01,NW,315,0.0,0.0,99,0.00,,,0.00,pywws,2013-03-03 14:56:00,
2013-03-04 01:06:00,76.5,76.2,30.00,NW,315,0.0,0.7,99,0.00,,,0.00,pywws,2013-03-03 15:06:00,
2013-03-04 01:16:00,76.5,76.2,30.00,NW,315,0.0,0.0,99,0.00,,,0.00,pywws,2013-03-03 15:16:00,
2013-03-04 01:26:00,76.5,76.2,30.00,NW,315,0.0,0.0,99,0.00,,,0.00,pywws,2013-03-03 15:26:00,
2013-03-04 01:36:00,76.3,76.0,30.00,NW,315,0.0,0.0,99,0.00,,,0.00,pywws,2013-03-03 15:36:00,
2013-03-04 01:46:00,76.5,76.2,30.00,West,270,0.0,0.7,99,0.00,,,0.00,pywws,2013-03-03 15:46:00,
2013-03-04 01:56:00,76.5,76.2,29.99,West,270,0.0,0.7,99,0.00,,,0.00,pywws,2013-03-03 15:56:00,
2013-03-04 02:06:00,76.1,75.8,29.99,NE,45,0.0,0.7,99,0.00,,,0.00,pywws,2013-03-03 16:06:00,
2013-03-04 02:16:00,76.3,76.0,29.98,NE,45,0.0,0.0,99,0.00,,,0.00,pywws,2013-03-03 16:16:00,
2013-03-04 02:26:00,75.9,75.6,29.98,NE,45,0.0,0.7,99,0.00,,,0.00,pywws,2013-03-03 16:26:00,
2013-03-04 02:36:00,75.9,75.6,29.98,NE,45,0.0,0.0,99,0.00,,,0.00,pywws,2013-03-03 16:36:00,
2013-03-04 02:46:00,75.9,75.6,29.98,NE,45,0.0,0.7,99,0.00,,,0.00,pywws,2013-03-03 16:46:00,
2013-03-04 02:56:00,75.9,75.6,29.97,NE,45,0.0,0.0,99,0.00,,,0.00,pywws,2013-03-03 16:56:00,
2013-03-04 03:06:00,75.9,75.6,29.97,NE,45,0.0,0.0,99,0.00,,,0.00,pywws,2013-03-03 17:06:00,
2013-03-04 03:16:00,75.9,75.6,29.98,NW,315,0.0,0.0,99,0.00,,,0.00,pywws,2013-03-03 17:16:00,
2013-03-04 03:26:00,75.7,75.4,29.98,NW,315,0.0,0.0,99,0.00,,,0.00,pywws,2013-03-03 17:26:00,
2013-03-04 03:36:00,75.7,75.4,29.98,NW,315,0.0,0.0,99,0.00,,,0.00,pywws,2013-03-03 17:36:00,
2013-03-04 03:46:00,75.6,75.3,29.98,NW,315,0.0,0.0,99,0.00,,,0.00,pywws,2013-03-03 17:46:00,
2013-03-04 03:56:00,75.6,75.3,29.98,NW,315,0.0,0.7,99,0.00,,,0.00,pywws,2013-03-03 17:56:00,
2013-03-04 04:06:00,75.6,75.3,29.98,NW,315,0.0,0.0,99,0.00,,,0.00,pywws,2013-03-03 18:06:00,
2013-03-04 04:16:00,75.6,75.3,29.99,NW,315,0.0,0.7,99,0.00,,,0.00,pywws,2013-03-03 18:16:00,
2013-03-04 04:26:00,75.7,75.4,29.99,NW,315,0.0,0.0,99,0.00,,,0.00,pywws,2013-03-03 18:26:00,
2013-03-04 04:36:00,75.7,75.4,29.99,NW,315,0.0,0.0,99,0.00,,,0.00,pywws,2013-03-03 18:36:00,
2013-03-04 04:46:00,75.7,75.4,30.00,NW,315,0.0,0.7,99,0.00,,,0.00,pywws,2013-03-03 18:46:00,
2013-03-04 04:56:00,75.7,75.4,30.00,NW,315,0.0,0.0,99,0.00,,,0.00,pywws,2013-03-03 18:56:00,
2013-03-04 05:06:00,75.6,75.3,30.00,NW,315,0.0,0.0,99,0.00,,,0.00,pywws,2013-03-03 19:06:00,
2013-03-04 05:16:00,75.7,75.4,30.01,NW,315,0.0,0.0,99,0.00,,,0.00,pywws,2013-03-03 19:16:00,
2013-03-04 05:26:00,75.7,75.4,30.01,NW,315,0.0,0.0,99,0.00,,,0.00,pywws,2013-03-03 19:26:00,
2013-03-04 05:36:00,75.7,75.4,30.01,NW,315,0.0,0.0,99,0.00,,,0.00,pywws,2013-03-03 19:36:00,
2013-03-04 05:46:00,75.7,75.4,30.00,NW,315,0.0,0.0,99,0.00,,,0.00,pywws,2013-03-03 19:46:00,
2013-03-04 05:56:00,75.7,75.4,30.00,NW,315,0.0,0.0,99,0.00,,,0.00,pywws,2013-03-03 19:56:00,
2013-03-04 06:06:00,75.6,75.3,30.01,NW,315,0.0,0.0,99,0.00,,,0.00,pywws,2013-03-03 20:06:00,
2013-03-04 06:16:00,75.4,75.1,30.01,NW,315,0.0,0.0,99,0.00,,,0.00,pywws,2013-03-03 20:16:00,
2013-03-04 06:26:00,75.6,75.3,30.02,NW,315,0.0,0.7,99,0.00,,,0.00,pywws,2013-03-03 20:26:00,
2013-03-04 06:36:00,75.6,75.3,30.02,NW,315,0.0,0.0,99,0.00,,,0.00,pywws,2013-03-03 20:36:00,
2013-03-04 06:46:00,75.7,75.4,30.03,NW,315,0.0,0.0,99,0.00,,,0.00,pywws,2013-03-03 20:46:00,
2013-03-04 06:56:00,75.7,75.4,30.03,NW,315,0.0,0.0,99,0.00,,,0.00,pywws,2013-03-03 20:56:00,
2013-03-04 07:06:00,75.7,75.4,30.03,NW,315,0.0,0.0,99,0.00,,,0.00,pywws,2013-03-03 21:06:00,
2013-03-04 07:16:00,76.1,75.8,30.03,NW,315,0.0,0.0,99,0.00,,,0.00,pywws,2013-03-03 21:16:00,
2013-03-04 07:26:00,76.5,76.2,30.03,NE,45,0.7,1.6,99,0.00,,,0.00,pywws,2013-03-03 21:26:00,
2013-03-04 07:36:00,77.2,76.9,30.03,North,0,0.7,1.6,99,0.00,,,0.00,pywws,2013-03-03 21:36:00,
2013-03-04 07:46:00,77.7,77.4,30.04,NE,45,0.0,0.0,99,0.00,,,0.00,pywws,2013-03-03 21:46:00,
2013-03-04 07:56:00,78.1,77.8,30.05,NE,45,0.0,0.0,99,0.00,,,0.00,pywws,2013-03-03 21:56:00,
2013-03-04 08:06:00,78.3,78.0,30.04,North,0,0.0,0.0,99,0.00,,,0.00,pywws,2013-03-03 22:06:00,
2013-03-04 08:16:00,79.0,78.4,30.05,North,0,0.0,0.0,98,0.00,,,0.00,pywws,2013-03-03 22:16:00,
2013-03-04 08:26:00,80.2,79.6,30.05,NNE,22,0.0,0.7,98,0.00,,,0.00,pywws,2013-03-03 22:26:00,
2013-03-04 08:36:00,81.0,80.0,30.06,NE,45,0.0,0.7,97,0.00,,,0.00,pywws,2013-03-03 22:36:00,
2013-03-04 08:46:00,81.3,80.4,30.06,NE,45,0.0,0.0,97,0.00,,,0.00,pywws,2013-03-03 22:46:00,
2013-03-04 08:56:00,81.5,80.6,30.06,NE,45,0.0,0.0,97,0.00,,,0.00,pywws,2013-03-03 22:56:00,
2013-03-04 09:06:00,81.5,80.6,30.06,NE,45,0.0,0.0,97,0.00,,,0.00,pywws,2013-03-03 23:06:00,
2013-03-04 09:16:00,81.0,80.0,30.06,NE,45,0.0,0.0,97,0.00,,,0.00,pywws,2013-03-03 23:16:00,
2013-03-04 09:26:00,81.5,80.6,30.07,NE,45,0.0,0.0,97,0.00,,,0.00,pywws,2013-03-03 23:26:00,
2013-03-04 09:36:00,82.2,81.3,30.06,NE,45,0.0,0.7,97,0.00,,,0.00,pywws,2013-03-03 23:36:00,
2013-03-04 09:46:00,83.1,82.5,30.06,NE,45,0.0,0.7,98,0.00,,,0.00,pywws,2013-03-03 23:46:00,
2013-03-04 09:56:00,83.7,82.7,30.06,East,90,0.7,2.2,97,0.00,,,0.00,pywws,2013-03-03 23:56:00,
2013-03-04 10:06:00,84.7,83.1,30.06,NE,45,0.0,0.7,95,0.00,,,0.00,pywws,2013-03-04 00:06:00,
2013-03-04 10:16:00,85.8,83.9,30.05,NE,45,0.7,2.2,94,0.00,,,0.00,pywws,2013-03-04 00:16:00,
2013-03-04 10:26:00,86.5,84.3,30.05,NE,45,0.0,0.7,93,0.00,,,0.00,pywws,2013-03-04 00:26:00,
2013-03-04 10:36:00,87.8,84.5,30.05,North,0,0.0,0.0,90,0.00,,,0.00,pywws,2013-03-04 00:36:00,
2013-03-04 10:46:00,90.0,85.6,30.04,NE,45,0.7,2.2,87,0.00,,,0.00,pywws,2013-03-04 00:46:00,
2013-03-04 10:56:00,90.0,83.7,30.03,North,0,0.0,0.7,82,0.00,,,0.00,pywws,2013-03-04 00:56:00,
2013-03-04 11:06:00,91.2,84.9,30.03,SW,225,0.7,1.6,82,0.00,,,0.00,pywws,2013-03-04 01:06:00,
2013-03-04 11:16:00,90.0,85.2,30.02,SE,135,0.0,0.7,86,0.00,,,0.00,pywws,2013-03-04 01:16:00,
2013-03-04 11:26:00,90.0,85.2,30.02,West,270,0.0,0.7,86,0.00,,,0.00,pywws,2013-03-04 01:26:00,
2013-03-04 11:36:00,91.8,86.6,30.01,SE,135,1.6,3.8,85,0.00,,,0.00,pywws,2013-03-04 01:36:00,
2013-03-04 11:46:00,93.0,85.5,30.01,NE,45,0.0,1.6,79,0.00,,,0.00,pywws,2013-03-04 01:46:00,
2013-03-04 11:56:00,94.8,86.9,30.00,SW,225,1.6,3.1,78,0.00,,,0.00,pywws,2013-03-04 01:56:00,
2013-03-04 12:06:00,95.2,86.0,30.00,SE,135,0.7,1.6,75,0.00,,,0.00,pywws,2013-03-04 02:06:00,
2013-03-04 12:16:00,92.1,84.6,30.00,East,90,3.8,5.4,79,0.00,,,0.00,pywws,2013-03-04 02:16:00,
2013-03-04 12:26:00,90.7,84.4,29.99,East,90,0.0,1.6,82,0.00,,,0.00,pywws,2013-03-04 02:26:00,
2013-03-04 12:36:00,89.2,83.8,29.98,South,180,0.7,2.2,84,0.00,,,0.00,pywws,2013-03-04 02:36:00,
2013-03-04 12:46:00,90.5,83.5,29.98,NE,45,0.0,2.2,80,0.00,,,0.00,pywws,2013-03-04 02:46:00,
2013-03-04 12:56:00,89.6,83.4,29.98,East,90,1.6,2.2,82,0.00,,,0.00,pywws,2013-03-04 02:56:00,
2013-03-04 13:06:00,88.0,83.2,29.98,SW,225,1.6,3.1,86,0.00,,,0.00,pywws,2013-03-04 03:06:00,
2013-03-04 13:16:00,87.1,83.4,29.98,NW,315,0.7,2.2,89,0.00,,,0.00,pywws,2013-03-04 03:16:00,
2013-03-04 13:26:00,86.2,83.2,29.98,NE,45,1.6,3.1,91,0.00,,,0.00,pywws,2013-03-04 03:26:00,
2013-03-04 13:36:00,84.9,82.7,29.98,SW,225,1.6,3.8,93,0.00,,,0.00,pywws,2013-03-04 03:36:00,
2013-03-04 13:46:00,84.4,82.5,29.98,SW,225,0.7,1.6,94,0.00,,,0.00,pywws,2013-03-04 03:46:00,
2013-03-04 13:56:00,83.7,82.4,29.97,East,90,0.7,3.1,96,0.01,,,0.01,pywws,2013-03-04 03:56:00,
2013-03-04 14:06:00,82.9,82.0,29.98,West,270,0.7,1.6,97,0.01,,,0.01,pywws,2013-03-04 04:06:00,
2013-03-04 14:16:00,82.6,82.3,29.98,SW,225,0.0,0.7,99,0.02,,,0.02,pywws,2013-03-04 04:16:00,
2013-03-04 14:26:00,82.4,82.1,29.97,SW,225,0.0,0.7,99,0.04,,,0.04,pywws,2013-03-04 04:26:00,
2013-03-04 14:36:00,82.6,82.3,29.97,NE,45,0.0,2.2,99,0.04,,,0.04,pywws,2013-03-04 04:36:00,
2013-03-04 14:46:00,80.1,78.8,29.98,NE,45,4.5,7.6,96,0.05,,,0.05,pywws,2013-03-04 04:46:00,
2013-03-04 14:56:00,78.8,77.9,29.98,NW,315,0.7,2.2,97,0.05,,,0.06,pywws,2013-03-04 04:56:00,
2013-03-04 15:00:00,78.4,78.1,29.98,SE,135,1.6,3.1,99,0.07,,,0.08,pywws,2013-03-04 05:00:00,
2013-03-04 15:06:00,78.3,78.0,29.98,West,270,0.7,1.6,99,0.09,,,0.11,pywws,2013-03-04 05:06:00,
2013-03-04 15:09:00,78.1,77.8,29.98,West,270,0.7,2.2,99,0.14,,,0.15,pywws,2013-03-04 05:09:00,
2013-03-04 15:16:00,77.9,77.6,29.99,North,0,1.6,2.2,99,0.24,,,0.26,pywws,2013-03-04 05:16:00,
2013-03-04 15:26:00,77.4,77.1,29.99,West,270,0.0,2.2,99,0.44,,,0.47,pywws,2013-03-04 05:26:00,
2013-03-04 15:36:00,77.5,77.2,29.98,SW,225,0.0,1.6,99,0.50,,,0.53,pywws,2013-03-04 05:36:00,
2013-03-04 15:46:00,77.7,77.4,29.98,North,0,2.2,3.1,99,0.56,,,0.60,pywws,2013-03-04 05:46:00,
2013-03-04 15:56:00,77.4,77.1,29.98,NW,315,0.0,0.7,99,0.60,,,0.66,pywws,2013-03-04 05:56:00,
2013-03-04 16:06:00,77.5,77.2,29.98,NW,315,0.0,0.0,99,0.58,,,0.69,pywws,2013-03-04 06:06:00,
2013-03-04 16:16:00,77.7,77.4,29.98,NE,45,0.7,1.6,99,0.44,,,0.70,pywws,2013-03-04 06:16:00,
2013-03-04 16:26:00,77.5,77.2,30.00,NE,45,0.0,0.0,99,0.22,,,0.70,pywws,2013-03-04 06:26:00,
2013-03-04 16:36:00,77.7,77.4,29.99,NE,45,0.0,0.0,99,0.18,,,0.71,pywws,2013-03-04 06:36:00,
2013-03-04 16:46:00,77.7,77.4,30.00,NE,45,0.0,0.7,99,0.11,,,0.71,pywws,2013-03-04 06:46:00,
2013-03-04 16:56:00,77.5,77.2,30.00,NE,45,0.0,0.7,99,0.05,,,0.71,pywws,2013-03-04 06:56:00,
2013-03-04 17:06:00,77.4,77.1,30.01,NE,45,0.0,0.0,99,0.02,,,0.71,pywws,2013-03-04 07:06:00,
2013-03-04 17:16:00,77.4,77.1,30.01,NE,45,0.0,0.0,99,0.01,,,0.71,pywws,2013-03-04 07:16:00,
2013-03-04 17:26:00,77.4,77.1,30.01,SW,225,0.7,2.2,99,0.01,,,0.71,pywws,2013-03-04 07:26:00,
2013-03-04 17:36:00,77.4,77.1,30.02,SW,225,0.0,0.7,99,0.01,,,0.72,pywws,2013-03-04 07:36:00,
2013-03-04 17:46:00,77.4,77.1,30.03,SW,225,0.0,0.0,99,0.01,,,0.72,pywws,2013-03-04 07:46:00,
2013-03-04 17:56:00,77.4,77.1,30.03,SW,225,0.0,0.0,99,0.01,,,0.72,pywws,2013-03-04 07:56:00,
2013-03-04 18:06:00,77.4,77.1,30.04,SW,225,0.0,0.0,99,0.02,,,0.73,pywws,2013-03-04 08:06:00,
2013-03-04 18:16:00,77.5,77.2,30.05,SW,225,0.0,0.0,99,0.04,,,0.74,pywws,2013-03-04 08:16:00,
2013-03-04 18:26:00,77.4,77.1,30.06,NE,45,1.6,3.1,99,0.06,,,0.77,pywws,2013-03-04 08:26:00,
2013-03-04 18:36:00,77.2,76.9,30.06,West,270,0.0,1.6,99,0.05,,,0.77,pywws,2013-03-04 08:36:00,
2013-03-04 18:46:00,76.8,76.5,30.06,West,270,0.0,0.7,99,0.06,,,0.78,pywws,2013-03-04 08:46:00,
2013-03-04 18:56:00,76.8,76.5,30.06,West,270,0.0,0.7,99,0.06,,,0.78,pywws,2013-03-04 08:56:00,
2013-03-04 19:06:00,76.5,76.2,30.06,West,270,0.0,0.0,99,0.06,,,0.79,pywws,2013-03-04 09:06:00,
2013-03-04 19:16:00,76.3,76.0,30.06,West,270,0.0,0.0,99,0.05,,,0.79,pywws,2013-03-04 09:16:00,
2013-03-04 19:26:00,75.9,75.6,30.07,West,270,0.0,0.0,99,0.04,,,0.80,pywws,2013-03-04 09:26:00,
2013-03-04 19:36:00,75.9,75.6,30.07,West,270,0.0,0.0,99,0.04,,,0.80,pywws,2013-03-04 09:36:00,
2013-03-04 19:46:00,75.7,75.4,30.07,West,270,0.0,0.7,99,0.04,,,0.81,pywws,2013-03-04 09:46:00,
2013-03-04 19:56:00,75.6,75.3,30.07,West,270,0.0,0.7,99,0.04,,,0.81,pywws,2013-03-04 09:56:00,
2013-03-04 20:06:00,75.4,75.1,30.07,West,270,0.0,0.0,99,0.04,,,0.83,pywws,2013-03-04 10:06:00,
2013-03-04 20:16:00,75.6,75.3,30.07,NW,315,0.0,0.0,99,0.04,,,0.83,pywws,2013-03-04 10:16:00,
2013-03-04 20:26:00,75.6,75.3,30.07,NW,315,0.0,0.0,99,0.04,,,0.84,pywws,2013-03-04 10:26:00,
2013-03-04 20:36:00,75.4,75.1,30.07,NW,315,0.0,0.0,99,0.04,,,0.84,pywws,2013-03-04 10:36:00,
2013-03-04 20:46:00,75.4,75.1,30.07,NW,315,0.0,0.7,99,0.02,,,0.84,pywws,2013-03-04 10:46:00,
2013-03-04 20:56:00,75.4,75.1,30.07,NW,315,0.0,0.0,99,0.02,,,0.84,pywws,2013-03-04 10:56:00,
2013-03-04 21:06:00,75.2,74.9,30.06,NW,315,0.0,0.0,99,0.02,,,0.85,pywws,2013-03-04 11:06:00,
2013-03-04 21:16:00,75.0,74.7,30.06,NW,315,0.0,0.0,99,0.02,,,0.85,pywws,2013-03-04 11:16:00,
2013-03-04 21:26:00,75.0,74.7,30.05,NW,315,0.0,0.7,99,0.01,,,0.85,pywws,2013-03-04 11:26:00,
2013-03-04 21:36:00,75.0,74.7,30.06,NW,315,0.0,0.0,99,0.01,,,0.85,pywws,2013-03-04 11:36:00,
2013-03-04 21:46:00,75.0,74.7,30.06,NW,315,0.0,0.0,99,0.01,,,0.85,pywws,2013-03-04 11:46:00,
2013-03-04 21:56:00,74.8,74.5,30.05,NW,315,0.0,0.0,99,0.01,,,0.85,pywws,2013-03-04 11:56:00,
2013-03-04 22:06:00,75.0,74.7,30.05,NW,315,0.0,0.7,99,0.00,,,0.85,pywws,2013-03-04 12:06:00,
2013-03-04 22:16:00,75.0,74.7,30.05,NW,315,0.0,0.0,99,0.00,,,0.85,pywws,2013-03-04 12:16:00,
2013-03-04 22:26:00,75.0,74.7,30.05,NW,315,0.0,0.7,99,0.00,,,0.85,pywws,2013-03-04 12:26:00,
2013-03-04 22:36:00,75.0,74.7,30.05,NW,315,0.0,0.7,99,0.00,,,0.85,pywws,2013-03-04 12:36:00,
2013-03-04 22:46:00,75.0,74.7,30.06,NW,315,0.0,0.0,99,0.00,,,0.85,pywws,2013-03-04 12:46:00,
2013-03-04 22:56:00,75.0,74.7,30.06,NW,315,0.0,0.0,99,0.00,,,0.85,pywws,2013-03-04 12:56:00,
2013-03-04 23:06:00,75.0,74.7,30.07,West,270,0.0,0.7,99,0.00,,,0.85,pywws,2013-03-04 13:06:00,
2013-03-04 23:16:00,75.0,74.7,30.07,West,270,0.0,0.7,99,0.00,,,0.85,pywws,2013-03-04 13:16:00,
2013-03-04 23:26:00,75.2,74.9,30.08,West,270,0.0,0.7,99,0.00,,,0.85,pywws,2013-03-04 13:26:00,
2013-03-04 23:36:00,75.0,74.7,30.08,West,270,0.0,0.7,99,0.00,,,0.85,pywws,2013-03-04 13:36:00,
2013-03-04 23:46:00,75.2,74.9,30.08,West,270,0.0,0.7,99,0.00,,,0.85,pywws,2013-03-04 13:46:00,
2013-03-04 23:56:00,75.2,74.9,30.07,West,270,0.0,0.7,99,0.00,,,0.85,pywws,2013-03-04 13:56:00,